Location: Bailleul
(50.3375°N, 2.8513°E)
Time: 09:31:27
(UTC+00:00)

Cosmos 2016 Rocket - Pass Details

Date: 28 October 2021
Orbit: 946 x 1001 km, 83.0° (Epoch: 29 November)

Event Time Altitude Azimuth Distance (km) Brightness Sun altitude
Rises 17:23:55 0° 128° (SE) 3,647 6.6 -8.9°
Reaches altitude 10° 17:27:49 10° 103° (ESE) 2,695 5.7 -9.5°
Maximum altitude 17:30:38 14° 75° (ENE) 2,436 5.4 -10.0°
Drops below altitude 10° 17:33:28 10° 48° (NE) 2,690 5.8 -10.4°
Sets 17:37:19 0° 24° (NNE) 3,635 6.7 -11.0°
